This is the latest recevied weather packets stored in our database for station/object N8BAP. If no packets are shown the sender has not sent any weather packets the latest 10 day(s).
| Time | Temp. | Humidity | Pressure | Rain* | Wind** | Luminosity | Snow |
|---|---|---|---|---|---|---|---|
| 1778212842 | 8.33° C | 68% | 1019.9 hPa | 0 mm | - | 0 W/m² | - |
| 1778212538 | 7.78° C | 64% | 1019.8 hPa | 0 mm | - | 0 W/m² | - |
| 1778212236 | 7.78° C | 68% | 1019.6 hPa | 0 mm | - | 0 W/m² | - |
| 1778211933 | 7.22° C | 71% | 1019.6 hPa | 0 mm | - | 0 W/m² | - |
| 1778211630 | 7.22° C | 74% | 1019.7 hPa | 0 mm | - | 0 W/m² | - |
| 1778211327 | 7.78° C | 73% | 1019.8 hPa | 0 mm | - | 0 W/m² | - |
| 1778211026 | 7.22° C | 67% | 1019.7 hPa | 0 mm | - | 0 W/m² | - |
| 1778210722 | 7.22° C | 74% | 1019.4 hPa | 0 mm | - | 0 W/m² | - |
| 1778210420 | 7.78° C | 74% | 1019.8 hPa | 0 mm | - | 0 W/m² | - |
| 1778210117 | 8.33° C | 68% | 1019.6 hPa | 0 mm | - | 0 W/m² | - |
| 1778209812 | 8.33° C | 62% | 1019.6 hPa | 0 mm | - | 0 W/m² | - |
| 1778209509 | 7.78° C | 65% | 1019.6 hPa | 0 mm | - | 0 W/m² | - |
| 1778209207 | 7.22° C | 68% | 1019.5 hPa | 0 mm | - | 0 W/m² | - |
| 1778208903 | 7.22° C | 74% | 1019.8 hPa | 0 mm | - | 0 W/m² | - |
| 1778208600 | 6.67° C | 73% | 1019.6 hPa | 0 mm | - | 0 W/m² | - |
| 1778208296 | 7.22° C | 74% | 1019.8 hPa | 0 mm | - | 0 W/m² | - |
| 1778207993 | 7.22° C | 71% | 1019.6 hPa | 0 mm | - | 0 W/m² | - |
| 1778207689 | 7.78° C | 69% | 1019.6 hPa | 0 mm | - | 0 W/m² | - |
| 1778207387 | 8.33° C | 66% | 1019.5 hPa | 0 mm | - | 0 W/m² | - |
| 1778207082 | 8.33° C | 65% | 1019.6 hPa | 0 mm | - | 0 W/m² | - |
| 1778206779 | 7.78° C | 66% | 1019.8 hPa | 0 mm | - | 0 W/m² | - |
| 1778206476 | 8.33° C | 71% | 1019.7 hPa | 0 mm | - | 0 W/m² | - |
| 1778206171 | 7.22° C | 72% | 1019.7 hPa | 0 mm | - | 0 W/m² | - |
| 1778205870 | 6.67° C | 74% | 1019.9 hPa | 0 mm | - | 0 W/m² | - |
| 1778205566 | 7.22° C | 78% | 1019.6 hPa | 0 mm | - | 0 W/m² | - |
* Rain latest hour (hover to see other rain measurements)
** Current wind speed in m/s (hover to see current wind gust speed)